Location: Kawakawa
(35.3830°S, 174.0670°E)
Time: 04:26:08
(UTC+13:00)

Envisat - Pass Details

Date: 02 December 2019
Orbit: 764 x 766 km, 98.1° (Epoch: 08 December)

Event Time Altitude Azimuth Distance (km) Brightness Sun altitude
Rises 21:48:52 0° 194° (SSW) 3,268 7.2 -15.0°
Reaches altitude 10° 21:54:07 10° 240° (WSW) 2,327 6.8 -15.8°
Maximum altitude 21:54:18 10° 242° (WSW) 2,325 6.7 -15.9°
Drops below altitude 10° 21:54:27 10° 243° (WSW) 2,326 6.7 -15.9°
Sets 21:59:42 0° 289° (WNW) 3,237 6.6 -16.7°
